Weather Roundup
Issued by NWS Chicago, IL

Home | Current Version | Previous Version | Graphics & Text | Print | Product List | Glossary On
Versions: 1 2 3 4 5 6 7 8 9 10 11 12 13 14 15 16 17 18 19 20 21 22 23 24 25 26 27 28 29 30 31 32 33 34 35 36 37 38 39 40 41 42 43 44 45 46 47 48 49 50
000
NZUS59 KLOT 201800
HRRLOT

CHICAGO AREA WEATHER ROUNDUP
NATIONAL WEATHER SERVICE CHICAGO/ROMEOVILLE IL
1200 PM CST SAT DEC 20 2014

NOTE: "FAIR" INDICATES FEW OR NO CLOUDS BELOW 12,000 FEET WITH NO
SIGNIFICANT WEATHER AND/OR OBSTRUCTIONS TO VISIBILITY.

* THESE STATIONS ARE NOT UNDER NWS QUALITY CONTROL. THEY ALSO MAY NOT
  REPORT WEATHER SUCH AS PRECIPITATION OR FOG.

ILZ005-006-012>014-019>023-201900-
NORTHEAST ILLINOIS

CITY           SKY/WX    TMP DP  RH WIND       PRES   REMARKS
OHARE          CLOUDY    31  23  72 S8        30.26F WCI  23
6HR MIN TEMP:  29; 6HR MAX TEMP:  31;

MIDWAY         CLOUDY    34  25  69 SW9       30.27F WCI  27
6HR MIN TEMP:  32; 6HR MAX TEMP:  34; 6HR PCP: TRACE;

AURORA         CLOUDY    31  24  75 SW6       30.27F HAZE    WCI  25
6HR MIN TEMP:  27; 6HR MAX TEMP:  31;

WAUKEGAN       CLOUDY    31  23  72 SW7       30.25F WCI  24
6HR MIN TEMP:  27; 6HR MAX TEMP:  31;

DUPAGE AIRPORT CLOUDY    31  24  75 S7        30.25F WCI  24
6HR MIN TEMP:  28; 6HR MAX TEMP:  31;

WHEELING       CLOUDY    32  23  69 S9        30.27F WCI  24
6HR MIN TEMP:  28; 6HR MAX TEMP:  32;

NORTHERLY IS     N/A     32  24  73 S9          N/A  WCI  24
$$

WIZ051-052-058>065-066-070>072-201900-
SOUTHEAST WISCONSIN

CITY           SKY/WX    TMP DP  RH WIND       PRES   REMARKS
MILWAUKEE      CLOUDY    31  20  63 SW6       30.25F WCI  25
6HR MIN TEMP:  27; 6HR MAX TEMP:  31;

KENOSHA*       CLOUDY    31  24  75 S5        30.25F WCI  26
RACINE*        CLOUDY    31  22  69 SW5       30.27F WCI  26
WAUKESHA       CLOUDY    27  19  74 CALM      30.25F
$$

INZ001>003-010>013-019-020-201900-
NORTHWEST INDIANA

CITY           SKY/WX    TMP DP  RH WIND       PRES   REMARKS
GARY*          CLOUDY    34  23  64 S5        30.28F WCI  30
MICHIGAN CITY* NOT AVBL
RENSSELAER*    NOT AVBL
$$

LMZ740>746-201900-
SOUTHERN LAKE MICHIGAN

STATION/POSITION TIME  SKY/WX   TEMP WIND        PRES    VSBY
                                AIR  DIR/SP/G
                 (UTC)          (F)  (DEG/KT/KT) (MB)    (MI)
HARRISON CRIB    1700            31  200/ 11/ 13   N/A
BURNHAM HARBOR   1800            33  180/  8/  9   N/A
CALUMET HARBOR   1700            32  210/  6/  8 1024.0F
BURNS HARBOR     NOT AVBL
MICHIGAN CITY    NOT AVBL
$$

ABBREVIATIONS USED IN REMARKS
   TC - TEMPERATURE IN CELSIUS
  WCI - WIND CHILL INDEX
   HX - HEAT INDEX
  VSB - VISIBILITY
$$


USA.gov is the U.S. government's official web portal to all federal, state and local government web resources and services.